User: anonymous   Login
Location: Ostrava
(49.8330°N, 18.2830°E)
Time: 20:44:11
(UTC+02:00)
Language:

NOAA 19 - Orbit

View from above orbital plane
View from above orbital plane
View from above satellite
View from above satellite

Ground track
Ground track

The orbit data is extracted from the following two-line orbital elements,

1 33591U 09005A   17083.88441039 +.00000103 +00000-0 +80725-4 0  9991
2 33591 099.0830 049.5566 0014487 145.7716 214.4391 14.12163992418490
Epoch (UTC): 24 March 2017 21:13:33
Eccentricity: 0.0014487
inclination: 99.0830°
perigee height: 841 km
apogee height: 862 km
right ascension of ascending node: 49.5566°
argument of perigee: 145.7716°
revolutions per day: 14.12163992
mean anomaly at epoch: 214.4391°
orbit number at epoch: 41849

The dashed part of the orbit path shows where the satellite is in the earth's shadow,  

DLR